EWG237 EDDK-LOWW

Flight info

Callsign EWG237
Flight time N/A
Altitude 35000
Route KUMIK1R/31R KUMIK L603 TESGA DCT ESATI DCT BARSU DCT EKSOS DCT LULAR DCT RUDAP DCT BUDEX BUDEX2W
Aircraft A20N/M-SDE2E3FGHIRWXY/LB1

Departure

Time 2026-05-06 20:16
Airport Cologne Bonn Airport (EDDK)

Arrival

Time N/A
Airport Vienna International Airport (LOWW)
Time Latitude Longitude Altitude Speed Heading
2026-05-06 19:29 50.87935 7.12458 234 ft 0 kts 265°
2026-05-06 19:32 50.87935 7.12459 234 ft 0 kts 265°
2026-05-06 19:38 50.87935 7.12458 232 ft 0 kts 265°
2026-05-06 19:40 50.87935 7.12459 232 ft 0 kts 265°
2026-05-06 19:48 50.87935 7.12458 232 ft 0 kts 265°
2026-05-06 19:49 50.87935 7.12457 232 ft 0 kts 265°
2026-05-06 19:54 50.87936 7.12487 237 ft 4 kts 265°
2026-05-06 19:54 50.87938 7.12525 236 ft 4 kts 250°
2026-05-06 19:54 50.87952 7.12547 234 ft 4 kts 166°
2026-05-06 19:54 50.87976 7.12529 237 ft 4 kts 142°
2026-05-06 19:55 50.87984 7.12518 234 ft 0 kts 137°
2026-05-06 19:56 50.87986 7.12516 234 ft 1 kts 137°
2026-05-06 19:56 50.87986 7.12515 234 ft 0 kts 137°
2026-05-06 19:59 50.87979 7.12525 233 ft 5 kts 138°
2026-05-06 19:59 50.87921 7.12604 235 ft 14 kts 155°
2026-05-06 19:59 50.87813 7.12639 234 ft 17 kts 150°
2026-05-06 19:59 50.87721 7.12771 232 ft 19 kts 137°
2026-05-06 20:00 50.87620 7.12921 233 ft 21 kts 137°
2026-05-06 20:00 50.87508 7.13078 232 ft 22 kts 139°
2026-05-06 20:00 50.87388 7.13251 232 ft 24 kts 137°
2026-05-06 20:00 50.87260 7.13439 235 ft 25 kts 137°
2026-05-06 20:01 50.87129 7.13626 238 ft 23 kts 138°
2026-05-06 20:01 50.87013 7.13797 243 ft 23 kts 137°
2026-05-06 20:01 50.86902 7.13959 252 ft 20 kts 137°
2026-05-06 20:01 50.86798 7.14106 255 ft 21 kts 143°
2026-05-06 20:02 50.86720 7.14163 256 ft 0 kts 153°
2026-05-06 20:02 50.86719 7.14164 257 ft 1 kts 152°
2026-05-06 20:02 50.86679 7.14214 259 ft 11 kts 137°
2026-05-06 20:02 50.86614 7.14312 261 ft 16 kts 136°
2026-05-06 20:03 50.86507 7.14466 265 ft 22 kts 139°
2026-05-06 20:03 50.86400 7.14620 272 ft 19 kts 137°
2026-05-06 20:03 50.86313 7.14748 277 ft 14 kts 137°
2026-05-06 20:03 50.86238 7.14858 281 ft 17 kts 137°
2026-05-06 20:04 50.86137 7.15005 286 ft 21 kts 137°
2026-05-06 20:04 50.86025 7.15166 292 ft 22 kts 138°
2026-05-06 20:04 50.85911 7.15331 294 ft 22 kts 138°
2026-05-06 20:04 50.85795 7.15497 299 ft 22 kts 136°
2026-05-06 20:05 50.85680 7.15666 301 ft 23 kts 139°
2026-05-06 20:05 50.85564 7.15834 305 ft 23 kts 137°
2026-05-06 20:05 50.85447 7.16002 307 ft 23 kts 137°
2026-05-06 20:05 50.85340 7.16203 308 ft 25 kts 108°
2026-05-06 20:06 50.85374 7.16432 307 ft 14 kts 49°
2026-05-06 20:06 50.85385 7.16450 309 ft 0 kts 43°
2026-05-06 20:08 50.85407 7.16479 307 ft 12 kts 36°
2026-05-06 20:08 50.85518 7.16514 309 ft 20 kts 353°
2026-05-06 20:09 50.85624 7.16413 308 ft 5 kts 314°
2026-05-06 20:09 50.85625 7.16413 308 ft 0 kts 314°
2026-05-06 20:10 50.85635 7.16398 307 ft 5 kts 319°
2026-05-06 20:10 50.85636 7.16396 307 ft 0 kts 319°
2026-05-06 20:11 50.85682 7.16335 307 ft 13 kts 319°
2026-05-06 20:11 50.85660 7.16262 307 ft 10 kts 188°
2026-05-06 20:11 50.85595 7.16197 310 ft 13 kts 230°
2026-05-06 20:11 50.85532 7.16082 307 ft 15 kts 228°
2026-05-06 20:12 50.85445 7.16006 307 ft 15 kts 156°
2026-05-06 20:12 50.85363 7.16132 307 ft 18 kts 126°
2026-05-06 20:12 50.85339 7.16326 307 ft 19 kts 78°
2026-05-06 20:12 50.85385 7.16441 307 ft 0 kts 42°
2026-05-06 20:15 50.85397 7.16459 307 ft 10 kts 42°
2026-05-06 20:15 50.85509 7.16519 309 ft 22 kts 355°
2026-05-06 20:15 50.85643 7.16391 307 ft 24 kts 318°
2026-05-06 20:16 50.85823 7.16125 304 ft 62 kts 317°
2026-05-06 20:16 50.86299 7.15440 288 ft 120 kts 317°
2026-05-06 20:16 50.87036 7.14373 288 ft 161 kts 317°
2026-05-06 20:16 50.87822 7.13244 975 ft 149 kts 319°
2026-05-06 20:17 50.88614 7.12105 1534 ft 158 kts 318°
2026-05-06 20:17 50.89471 7.11044 2146 ft 159 kts 333°
2026-05-06 20:17 50.90575 7.10487 2466 ft 178 kts 355°
2026-05-06 20:17 50.91860 7.10816 2812 ft 201 kts 24°
2026-05-06 20:18 50.92933 7.12353 3445 ft 215 kts 57°
2026-05-06 20:18 50.93666 7.14431 4456 ft 218 kts 62°
2026-05-06 20:18 50.94362 7.16681 5150 ft 237 kts 61°
2026-05-06 20:18 50.95133 7.19127 5753 ft 258 kts 61°
2026-05-06 20:19 50.95919 7.21767 6538 ft 269 kts 70°
2026-05-06 20:19 50.96098 7.24686 7507 ft 276 kts 95°
2026-05-06 20:19 50.95731 7.27713 8453 ft 282 kts 99°
2026-05-06 20:19 50.95278 7.30755 9448 ft 286 kts 100°
2026-05-06 20:20 50.94798 7.33847 10309 ft 294 kts 101°
2026-05-06 20:20 50.94300 7.37116 10685 ft 317 kts 101°
2026-05-06 20:20 50.93769 7.40646 11024 ft 339 kts 101°
2026-05-06 20:20 50.93219 7.44318 11777 ft 345 kts 101°
2026-05-06 20:21 50.92662 7.48041 12601 ft 350 kts 101°
2026-05-06 20:21 50.92097 7.51823 13404 ft 355 kts 102°
2026-05-06 20:21 50.91526 7.55659 14130 ft 361 kts 103°
2026-05-06 20:21 50.90944 7.59579 14762 ft 367 kts 103°
2026-05-06 20:22 50.90351 7.63536 15520 ft 371 kts 103°
2026-05-06 20:22 50.89748 7.67533 16246 ft 375 kts 104°
2026-05-06 20:22 50.89137 7.71568 16973 ft 379 kts 104°
2026-05-06 20:22 50.88519 7.75640 17683 ft 383 kts 104°
2026-05-06 20:23 50.87892 7.79766 18345 ft 387 kts 104°
2026-05-06 20:23 50.87259 7.83918 18979 ft 390 kts 104°
2026-05-06 20:23 50.86619 7.88110 19602 ft 393 kts 104°
2026-05-06 20:23 50.85972 7.92334 20216 ft 397 kts 104°
2026-05-06 20:24 50.85238 7.96557 20816 ft 399 kts 112°
2026-05-06 20:24 50.83927 8.00425 21397 ft 400 kts 128°
2026-05-06 20:24 50.82062 8.03689 21977 ft 402 kts 136°
2026-05-06 20:24 50.80075 8.06820 22584 ft 405 kts 137°
2026-05-06 20:25 50.78053 8.09949 23183 ft 408 kts 137°
2026-05-06 20:25 50.76016 8.13090 23720 ft 411 kts 137°
2026-05-06 20:25 50.73971 8.16248 24275 ft 412 kts 137°
2026-05-06 20:25 50.68401 8.24863 25688 ft 416 kts 137°
2026-05-06 20:26 50.55698 8.44409 27813 ft 421 kts 137°
2026-05-06 20:26 50.47239 8.57329 29455 ft 428 kts 137°
2026-05-06 20:26 50.38579 8.70501 30756 ft 438 kts 138°
2026-05-06 20:26 50.29806 8.83787 32280 ft 438 kts 138°
2026-05-06 20:27 50.21039 8.96986 33735 ft 437 kts 139°
2026-05-06 20:27 50.12244 9.10148 34769 ft 439 kts 139°
2026-05-06 20:27 50.05564 9.25815 34838 ft 450 kts 108°
2026-05-06 20:27 50.03794 9.41232 34824 ft 452 kts 104°
2026-05-06 20:28 50.02505 9.52434 34819 ft 451 kts 104°
2026-05-06 20:28 50.01391 9.62044 34804 ft 452 kts 104°
2026-05-06 20:29 50.00267 9.71667 34818 ft 452 kts 104°
2026-05-06 20:29 49.99136 9.81283 34818 ft 452 kts 104°
2026-05-06 20:30 49.97616 9.94092 34815 ft 453 kts 105°
2026-05-06 20:31 49.96465 10.03704 34816 ft 453 kts 105°
2026-05-06 20:31 49.95127 10.14818 34807 ft 453 kts 105°
2026-05-06 20:32 49.90928 10.43843 34814 ft 447 kts 117°
2026-05-06 20:32 49.83116 10.73903 34817 ft 449 kts 117°
2026-05-06 20:33 49.73696 11.09726 34836 ft 451 kts 117°
2026-05-06 20:33 49.64352 11.45807 34827 ft 457 kts 113°
2026-05-06 20:34 49.56628 11.82906 34818 ft 457 kts 114°
2026-05-06 20:34 49.48734 12.20038 34824 ft 458 kts 114°
2026-05-06 20:35 49.40688 12.57203 34811 ft 457 kts 115°
2026-05-06 20:35 49.32186 12.93975 34814 ft 457 kts 117°
2026-05-06 20:36 49.25737 13.20077 34820 ft 457 kts 117°
2026-05-06 20:36 49.23479 13.29125 34817 ft 456 kts 118°
2026-05-06 20:37 49.21067 13.38095 34812 ft 455 kts 119°
2026-05-06 20:37 49.18618 13.47075 34822 ft 460 kts 118°
2026-05-06 20:38 49.14742 13.61378 34827 ft 460 kts 118°
2026-05-06 20:38 49.04866 13.97479 34828 ft 462 kts 119°
2026-05-06 20:39 48.99803 14.15768 34819 ft 463 kts 120°
2026-05-06 20:39 48.97294 14.24791 34503 ft 463 kts 120°
2026-05-06 20:39 48.96031 14.29285 34242 ft 461 kts 122°
2026-05-06 20:40 48.94575 14.33603 33629 ft 457 kts 128°
2026-05-06 20:40 48.92837 14.37635 32714 ft 455 kts 134°
2026-05-06 20:40 48.90911 14.41411 32008 ft 451 kts 134°
2026-05-06 20:40 48.88993 14.45177 31254 ft 451 kts 134°
2026-05-06 20:41 48.87080 14.48954 30488 ft 451 kts 133°
2026-05-06 20:41 48.85212 14.52643 29853 ft 448 kts 133°
2026-05-06 20:41 48.83304 14.56395 29374 ft 441 kts 133°
2026-05-06 20:41 48.81449 14.60070 28680 ft 437 kts 134°
2026-05-06 20:42 48.79610 14.63703 28210 ft 431 kts 134°
2026-05-06 20:42 48.77785 14.67294 27674 ft 426 kts 134°
2026-05-06 20:42 48.75982 14.70834 27148 ft 421 kts 134°
2026-05-06 20:42 48.74202 14.74321 26636 ft 416 kts 134°
2026-05-06 20:43 48.72440 14.77770 26116 ft 411 kts 134°
2026-05-06 20:43 48.70697 14.81174 25595 ft 407 kts 134°
2026-05-06 20:43 48.68968 14.84546 25084 ft 403 kts 134°
2026-05-06 20:43 48.67257 14.87879 24582 ft 399 kts 134°
2026-05-06 20:44 48.65561 14.91177 24066 ft 396 kts 134°
2026-05-06 20:44 48.63875 14.94451 23553 ft 392 kts 134°
2026-05-06 20:44 48.62207 14.97689 23026 ft 388 kts 134°
2026-05-06 20:44 48.60579 15.00922 22523 ft 385 kts 130°
2026-05-06 20:45 48.59217 15.04411 22033 ft 386 kts 122°
2026-05-06 20:45 48.58206 15.08182 21519 ft 388 kts 113°
2026-05-06 20:45 48.57511 15.12113 21020 ft 386 kts 110°
2026-05-06 20:45 48.56849 15.16025 20515 ft 383 kts 110°
2026-05-06 20:46 48.56185 15.19899 20017 ft 380 kts 110°
2026-05-06 20:46 48.55522 15.23739 19510 ft 377 kts 110°
2026-05-06 20:46 48.54860 15.27557 18997 ft 375 kts 110°
2026-05-06 20:46 48.54200 15.31353 18486 ft 373 kts 110°
2026-05-06 20:47 48.53549 15.35087 17950 ft 372 kts 110°
2026-05-06 20:47 48.52895 15.38842 17429 ft 369 kts 109°
2026-05-06 20:47 48.52253 15.42569 16912 ft 366 kts 107°
2026-05-06 20:47 48.51858 15.46363 16524 ft 365 kts 98°
2026-05-06 20:48 48.51654 15.50283 16284 ft 386 kts 98°
2026-05-06 20:48 48.51429 15.54335 15981 ft 387 kts 98°
2026-05-06 20:48 48.51203 15.58352 15682 ft 382 kts 98°
2026-05-06 20:48 48.50977 15.62326 15386 ft 380 kts 98°
2026-05-06 20:49 48.50751 15.66285 15091 ft 378 kts 98°
2026-05-06 20:49 48.50524 15.70234 14803 ft 378 kts 98°
2026-05-06 20:49 48.50294 15.74175 14498 ft 376 kts 98°
2026-05-06 20:49 48.50064 15.78081 14217 ft 371 kts 98°
2026-05-06 20:50 48.49837 15.81936 13935 ft 369 kts 98°
2026-05-06 20:50 48.49608 15.85785 13650 ft 368 kts 98°
2026-05-06 20:50 48.49378 15.89620 13408 ft 366 kts 98°
2026-05-06 20:50 48.49149 15.93435 13227 ft 365 kts 98°
2026-05-06 20:51 48.48919 15.97247 13057 ft 366 kts 98°
2026-05-06 20:51 48.48688 16.01061 12897 ft 365 kts 98°
2026-05-06 20:51 48.48434 16.04850 12709 ft 362 kts 103°
2026-05-06 20:51 48.47602 16.08367 12551 ft 354 kts 124°
2026-05-06 20:52 48.46021 16.11128 12389 ft 346 kts 146°
2026-05-06 20:52 48.43943 16.12855 12237 ft 341 kts 159°
2026-05-06 20:52 48.41767 16.14253 12076 ft 339 kts 160°
2026-05-06 20:52 48.39606 16.15619 11868 ft 335 kts 160°
2026-05-06 20:53 48.37465 16.16987 11575 ft 334 kts 160°
2026-05-06 20:53 48.35356 16.18354 11463 ft 324 kts 160°